Location: *
(43.7000°S, 168.7000°W)
Time: 11:32:39
(UTC+00:00)

CZ-4C R/B - Pass Details

Date: 07 July 2020
Orbit: 632 x 1370 km, 63.4° (Epoch: 09 August)

Event Time Altitude Azimuth Distance (km) Brightness Sun altitude
Exits shadow 16:26:50 44° 281° (WNW) 1,634 3.2 -24.7°
Maximum altitude 16:29:04 59° 229° (SW) 1,353 2.9 -24.3°
Drops below altitude 10° 16:35:56 10° 149° (SSE) 2,865 5.2 -23.0°
Sets 16:38:25 0° 144° (SE) 3,715 5.9 -22.6°
